[[{"header":{"parameterUnit":"m.s-1","parameterCategory":1,"la1":30.2991,"la2":30.254,"lo1":-89.0895,"lo2":-89.0444,"dy":0.0017,"dx":0.0017,"nx":28,"ny":28,"refTime":"2024-05-09T03:00:00:Z","depth":0,"parameterNumber":2,"parameterNumberName":"U-component_of_WINDS"},"data":[0,0,0,0,0,0,0,0,0,0,0,0,0,0,0,0,0,0,0,0,0,0,0,0,0,0,0,0,0,0,0,0,0,0,0,0,0,0,0,0,0,0,0,0,0,0,0,0,0,0,0,0,0,0,0,0,0,0,-0.4915,-0.4915,0,-0.4888,-0.4888,-0.4888,-0.4859,-0.4858,-0.4858,-0.4858,-0.483,-0.483,-0.483,0,0,0,0,0,0,0,0,0,0,0,0,0,-0.494,-0.494,-0.4915,-0.4915,-0.4914,-0.4888,-0.4888,-0.4888,-0.4859,-0.4858,-0.4858,-0.4857,-0.483,-0.483,-0.483,0,0,0,0,0,0,0,0,0,0,0,0,0,-0.4923,-0.494,-0.4915,-0.4897,-0.4895,-0.4888,-0.4888,-0.4888,-0.4859,-0.4858,-0.4858,-0.4857,-0.4831,-0.483,-0.483,-0.4839,0,0,-0.4828,-0.4828,0,0,0,0,0,0,0,0,-0.4924,-0.4922,-0.49,-0.4898,-0.4896,-0.4876,-0.4887,-0.4871,-0.4859,-0.4873,-0.4858,-0.4857,-0.4846,-0.4844,-0.4841,-0.4838,-0.4837,-0.4828,-0.4828,-0.4827,-0.4827,0,0,0,0,0,0,0,-0.4925,-0.4923,-0.4904,-0.4899,-0.4897,-0.489,-0.4887,-0.4884,-0.4863,-0.4871,-0.4869,-0.4866,-0.4845,-0.4841,-0.484,-0.4836,-0.4828,-0.4828,-0.4827,-0.4827,-0.4839,-0.4839,0,0,0,0,0,0,-0.4929,-0.4924,-0.4905,-0.4904,-0.4909,-0.489,-0.4886,-0.4883,-0.4863,-0.4859,-0.4867,-0.4865,-0.4842,-0.484,-0.4839,-0.4847,-0.4827,-0.4827,-0.4827,-0.4838,-0.4839,-0.4839,0,0,0,0,0,0,-0.493,-0.4928,-0.4906,-0.4913,-0.491,-0.489,-0.4887,-0.4883,-0.4879,-0.486,-0.4856,-0.4867,-0.4842,-0.4839,-0.4839,-0.4846,-0.4827,-0.4826,-0.4837,-0.4838,-0.4839,-0.4866,0,0,0,0,0,0,-0.4931,-0.4928,-0.4932,-0.4914,-0.491,-0.4907,-0.4887,-0.4883,-0.4878,-0.4876,-0.4859,-0.4855,-0.4841,-0.484,-0.4838,-0.4845,-0.4826,-0.4836,-0.4838,-0.4839,-0.4864,-0.4867,-0.487,0,0,0,0,0,-0.4932,-0.494,-0.4932,-0.493,-0.4914,-0.4908,-0.4905,-0.4889,-0.4879,-0.4882,-0.487,-0.4856,-0.4846,-0.484,-0.4838,-0.4845,-0.4836,-0.4837,-0.4839,-0.4863,-0.4867,-0.487,0,0,0,0,0,0,-0.496,-0.4938,-0.4928,-0.4931,-0.4922,-0.4903,-0.4906,-0.4894,-0.4886,-0.4884,-0.4864,-0.486,-0.4862,-0.4854,-0.4847,-0.4852,-0.4839,-0.484,-0.4858,-0.4861,-0.4865,-0.4866,-0.4825,0,0,0,0,0,-0.4966,-0.4963,-0.4944,-0.4949,-0.4944,-0.4926,-0.4923,-0.4911,-0.49,-0.4896,-0.4883,-0.4873,-0.4867,-0.4864,-0.4858,-0.4863,-0.4858,-0.4867,-0.487,-0.4873,-0.4873,-0.4874,-0.4877,-0.4844,-0.4844,-0.4844,0,0,-0.498,-0.4967,-0.4967,-0.4954,-0.4945,-0.4942,-0.4923,-0.4921,-0.4918,-0.4895,-0.4894,-0.4884,-0.4872,-0.4874,-0.4874,-0.4867,-0.4882,-0.4874,-0.4877,-0.4876,-0.4876,-0.4879,-0.4882,-0.4845,-0.4845,-0.4844,0,0,-0.5003,-0.4993,-0.4996,-0.4987,-0.4974,-0.4962,-0.4962,-0.4945,-0.4938,-0.4936,-0.4919,-0.4916,-0.4907,-0.4898,-0.4892,-0.4912,-0.4898,-0.4911,-0.4926,-0.4927,-0.493,-0.4932,-0.4938,-0.494,-0.4912,-0.4912,-0.4912,0,-0.5021,-0.5016,-0.4999,-0.4997,-0.4992,-0.4971,-0.4973,-0.4966,-0.4951,-0.4948,-0.494,-0.4928,-0.4918,-0.4917,-0.4922,-0.4918,-0.4918,-0.4912,-0.4931,-0.4933,-0.4935,-0.494,-0.4943,-0.4913,-0.4913,-0.4913,-0.4913,0,-0.5038,-0.5035,-0.5039,-0.5025,-0.502,-0.502,-0.5003,-0.5,-0.4989,-0.4977,-0.4975,-0.4963,-0.4953,-0.4953,-0.4942,-0.495,-0.4946,-0.4935,-0.4921,-0.494,-0.4944,-0.4946,-0.4915,-0.4915,-0.4914,-0.4914,0,0,-0.5078,-0.5054,-0.5055,-0.5048,-0.5032,-0.5029,-0.5029,-0.5019,-0.5017,-0.5008,-0.5006,-0.4999,-0.4989,-0.4982,-0.497,-0.4972,-0.4986,-0.496,-0.496,-0.4964,-0.4993,-0.5001,-0.5003,-0.4978,-0.4978,-0.4978,-0.4994,0,-0.5096,-0.5094,-0.5078,-0.508,-0.5076,-0.5056,-0.5056,-0.5046,-0.5035,-0.503,-0.5018,-0.5013,-0.5001,-0.4997,-0.4997,-0.4984,-0.4992,-0.4983,-0.4975,-0.4975,-0.4978,-0.5006,-0.5014,-0.5029,-0.4996,-0.4996,-0.4996,0,-0.5118,-0.511,-0.5111,-0.5094,-0.5092,-0.5092,-0.5081,-0.5077,-0.5065,-0.5057,-0.505,-0.5037,-0.5034,-0.5022,-0.5018,-0.5013,-0.5009,-0.5002,-0.5002,-0.5,-0.4986,-0.5003,-0.5034,-0.5035,-0.4999,-0.4999,-0.4999,0,-0.5145,-0.5134,-0.5133,-0.5128,-0.5109,-0.5109,-0.5101,-0.5088,-0.5083,-0.5075,-0.5071,-0.5062,-0.5057,-0.5051,-0.5035,-0.5028,-0.5032,-0.5019,-0.5025,-0.5025,-0.5026,-0.5026,-0.5055,-0.5026,-0.5026,-0.5026,-0.5026,0,-0.5167,-0.5168,-0.5145,-0.5144,-0.5145,-0.5127,-0.5128,-0.5118,-0.5107,-0.5104,-0.5087,-0.5084,-0.5064,-0.5059,-0.5047,-0.5045,-0.5043,-0.5036,-0.5032,-0.5037,-0.5037,-0.5033,-0.5031,-0.5026,-0.5026,-0.5026,-0.5026,0,-0.5196,-0.5181,-0.5178,-0.516,-0.5156,-0.5157,-0.5141,-0.514,-0.5128,-0.5124,-0.5122,-0.5104,-0.5097,-0.5081,-0.507,-0.5062,-0.5063,-0.5057,-0.5067,-0.5064,-0.5071,-0.507,-0.5097,-0.5099,-0.507,-0.507,-0.507,0,-0.5211,-0.5211,-0.5193,-0.519,-0.5182,-0.5177,-0.5172,-0.5154,-0.515,-0.5136,-0.5136,-0.5128,-0.512,-0.511,-0.5095,-0.5087,-0.508,-0.509,-0.5078,-0.5082,-0.5078,-0.5078,-0.5078,-0.5092,-0.5093,-0.5093,-0.5093,0,-0.5238,-0.523,-0.5223,-0.5214,-0.5208,-0.52,-0.5191,-0.5189,-0.5169,-0.5165,-0.5157,-0.5151,-0.514,-0.5132,-0.5121,-0.5112,-0.5099,-0.5097,-0.5098,-0.5102,-0.5106,-0.5103,-0.5072,-0.5096,-0.5096,-0.5096,-0.5096,-0.5095,-0.5259,-0.5258,-0.5245,-0.5238,-0.5229,-0.5221,-0.5218,-0.5206,-0.52,-0.5189,-0.5179,-0.5173,-0.516,-0.5144,-0.5136,-0.513,-0.5124,-0.5125,-0.5125,-0.5126,-0.5127,-0.5108,-0.5129,-0.5128,-0.5128,-0.5128,-0.5128,0,-0.5284,-0.5275,-0.5268,-0.5256,-0.525,-0.5239,-0.5228,-0.5224,-0.5218,-0.5208,-0.52,-0.5192,-0.5183,-0.5168,-0.5159,-0.5157,-0.5151,-0.5155,-0.5154,-0.5152,-0.5134,-0.5134,-0.516,-0.516,-0.516,-0.516,-0.516,-0.516,-0.5296,-0.5294,-0.5284,-0.5277,-0.5268,-0.5261,-0.5256,-0.5248,-0.5239,-0.523,-0.5223,-0.5213,-0.5201,-0.519,-0.5182,-0.5177,-0.5174,-0.518,-0.5174,-0.5157,-0.5154,-0.5151,-0.515,-0.518,-0.518,-0.5192,-0.5192,-0.5192]},{"header":{"parameterUnit":"m.s-1","parameterCategory":1,"la1":30.2991,"la2":30.254,"lo1":-89.0895,"lo2":-89.0444,"dy":0.0017,"dx":0.0017,"nx":28,"ny":28,"refTime":"2024-05-09T03:00:00:Z","depth":0,"parameterNumber":3,"parameterNumberName":"V-component_of_WINDS"},"data":[0,0,0,0,0,0,0,0,0,0,0,0,0,0,0,0,0,0,0,0,0,0,0,0,0,0,0,0,0,0,0,0,0,0,0,0,0,0,0,0,0,0,0,0,0,0,0,0,0,0,0,0,0,0,0,0,0,0,5.1522,5.1523,0,5.1631,5.1632,5.1633,5.1689,5.1689,5.1689,5.1689,5.1796,5.1799,5.1801,0,0,0,0,0,0,0,0,0,0,0,0,0,5.1358,5.1361,5.1521,5.1523,5.1524,5.163,5.1632,5.1633,5.1689,5.1689,5.1689,5.1689,5.1795,5.1798,5.1802,0,0,0,0,0,0,0,0,0,0,0,0,0,5.1444,5.1362,5.1521,5.1565,5.157,5.163,5.1632,5.1634,5.1689,5.1689,5.1689,5.1689,5.1794,5.1798,5.1802,5.1825,0,0,5.1815,5.1816,0,0,0,0,0,0,0,0,5.1439,5.145,5.1557,5.1562,5.1568,5.1646,5.1613,5.1698,5.1689,5.1644,5.1689,5.1689,5.1746,5.1754,5.1774,5.183,5.1835,5.1815,5.1818,5.1819,5.1821,0,0,0,0,0,0,0,5.1433,5.1446,5.1565,5.1559,5.1565,5.1578,5.159,5.163,5.1692,5.1648,5.1652,5.1664,5.1749,5.177,5.1777,5.1837,5.1815,5.1819,5.1821,5.1823,5.1919,5.192,0,0,0,0,0,0,5.1421,5.144,5.1561,5.1568,5.1503,5.1581,5.1595,5.1621,5.1692,5.1703,5.1664,5.1667,5.1763,5.1772,5.1781,5.1814,5.1819,5.1823,5.1826,5.1919,5.1919,5.192,0,0,0,0,0,0,5.1417,5.1431,5.1557,5.1505,5.1522,5.1584,5.1613,5.1623,5.1644,5.1705,5.1716,5.1674,5.1763,5.1775,5.1815,5.1819,5.1825,5.1829,5.1919,5.1919,5.192,5.188,0,0,0,0,0,0,5.1412,5.1429,5.144,5.1505,5.1525,5.159,5.1613,5.1625,5.1652,5.1656,5.1717,5.1728,5.1764,5.1808,5.1819,5.1824,5.1832,5.1919,5.1919,5.192,5.1881,5.1879,5.1877,0,0,0,0,0,5.1406,5.1423,5.144,5.1454,5.1539,5.159,5.1601,5.1644,5.1652,5.1662,5.1702,5.1726,5.1816,5.1812,5.1824,5.1831,5.1919,5.1919,5.1919,5.1882,5.1879,5.1877,0,0,0,0,0,0,5.1353,5.1432,5.1452,5.149,5.1533,5.1599,5.1613,5.1639,5.1679,5.1681,5.1731,5.1744,5.178,5.1809,5.1803,5.1858,5.187,5.1873,5.1838,5.1835,5.1833,5.1825,5.1836,0,0,0,0,0,5.1347,5.1383,5.1449,5.1476,5.1497,5.1551,5.1575,5.1605,5.165,5.1668,5.171,5.1752,5.1791,5.1815,5.1853,5.1886,5.19,5.1897,5.1895,5.1892,5.1894,5.1915,5.1915,5.192,5.192,5.192,0,0,5.1332,5.138,5.1399,5.1467,5.1504,5.1539,5.1566,5.1602,5.1628,5.1673,5.1714,5.1746,5.1797,5.1834,5.1852,5.1859,5.1896,5.1893,5.1891,5.1894,5.1915,5.1915,5.1914,5.192,5.192,5.192,0,0,5.1325,5.1364,5.1392,5.1429,5.1485,5.1522,5.1528,5.1591,5.1615,5.1657,5.1692,5.1724,5.1788,5.1823,5.1849,5.1857,5.1881,5.1868,5.1856,5.1876,5.1875,5.1875,5.1879,5.1879,5.1869,5.1869,5.1869,0,5.1299,5.1355,5.1403,5.1438,5.1467,5.1511,5.154,5.1573,5.1637,5.1656,5.1664,5.1747,5.1784,5.1831,5.1833,5.1852,5.1861,5.1861,5.1872,5.1872,5.1873,5.1877,5.1878,5.1867,5.1868,5.1868,5.1868,0,5.1322,5.136,5.1376,5.144,5.1471,5.1502,5.1554,5.1579,5.1606,5.1641,5.1684,5.1731,5.178,5.1793,5.1819,5.1844,5.1847,5.1862,5.1875,5.1869,5.1874,5.1876,5.1865,5.1865,5.1866,5.1866,0,0,5.1283,5.1375,5.138,5.141,5.1476,5.1506,5.1539,5.159,5.1611,5.1654,5.1683,5.1738,5.1754,5.1783,5.1814,5.1831,5.1836,5.1845,5.1847,5.1842,5.1867,5.1855,5.1856,5.1852,5.1852,5.1853,5.1863,0,5.1285,5.1349,5.1393,5.1439,5.1476,5.1519,5.1548,5.1591,5.1626,5.1661,5.1698,5.1736,5.1754,5.1772,5.1791,5.1831,5.1841,5.1831,5.1879,5.188,5.1866,5.1858,5.1845,5.1852,5.1865,5.1865,5.1865,0,5.1295,5.134,5.139,5.1455,5.1471,5.1497,5.1548,5.158,5.163,5.1654,5.1688,5.172,5.1757,5.1767,5.1818,5.181,5.1833,5.1855,5.1856,5.1863,5.1872,5.1864,5.1855,5.1856,5.1868,5.1868,5.1868,0,5.1263,5.1335,5.1376,5.14,5.1475,5.1493,5.1524,5.1575,5.1603,5.1646,5.1665,5.1711,5.1737,5.1772,5.1815,5.1818,5.1862,5.1875,5.1883,5.1882,5.189,5.1889,5.1885,5.1904,5.1904,5.1903,5.1903,0,5.1261,5.129,5.1363,5.1387,5.1421,5.1472,5.1504,5.1539,5.1584,5.1616,5.1655,5.1684,5.174,5.1775,5.1809,5.1847,5.1857,5.1877,5.1886,5.1874,5.1872,5.1889,5.189,5.1904,5.1904,5.1904,5.1904,0,5.123,5.128,5.1327,5.1395,5.1413,5.1435,5.1493,5.1518,5.1556,5.1595,5.1607,5.1665,5.1709,5.1756,5.1815,5.1838,5.1874,5.1886,5.1858,5.1863,5.1868,5.1867,5.1875,5.1879,5.1894,5.1894,5.1894,0,5.1226,5.125,5.1321,5.1347,5.1378,5.1418,5.1447,5.1498,5.1527,5.1587,5.1605,5.1652,5.1693,5.176,5.1807,5.1853,5.1866,5.1866,5.1873,5.1861,5.1867,5.1866,5.1869,5.1864,5.1863,5.1863,5.1863,0,5.1213,5.1237,5.1279,5.133,5.1364,5.1406,5.145,5.1468,5.1527,5.1557,5.1604,5.1636,5.1697,5.1744,5.1795,5.1827,5.1855,5.186,5.1865,5.1853,5.1836,5.1846,5.1852,5.186,5.186,5.186,5.186,5.1861,5.1196,5.122,5.1275,5.132,5.1359,5.1399,5.1427,5.1469,5.1509,5.1564,5.1592,5.1638,5.1689,5.1761,5.1792,5.1829,5.1837,5.1843,5.1845,5.1846,5.1843,5.183,5.1838,5.1839,5.1839,5.1839,5.1839,0,5.1185,5.1224,5.1265,5.1326,5.1362,5.1387,5.1437,5.1465,5.1506,5.1552,5.1592,5.1646,5.1691,5.1742,5.1791,5.1811,5.1825,5.1822,5.1821,5.1828,5.1832,5.1824,5.181,5.181,5.181,5.181,5.181,5.181,5.1184,5.1227,5.1258,5.132,5.1357,5.1405,5.1431,5.1469,5.1506,5.1565,5.1604,5.1637,5.1685,5.1738,5.1781,5.1795,5.1811,5.1805,5.1822,5.1825,5.1827,5.183,5.1822,5.1808,5.1808,5.1815,5.1815,5.1815]}]]